GW5663 Weather Reports


Display with metric or nautical units.
time (UTC)temp
F
wind
direction
speed
MPH
gust
MPH
rain 1hr
in
rain 24hr
in
rain mn
in
humidity
%
barometer
mb
20260906224036 93 205 5.0 8.0 0.00 0.00 0.00 45 1091.7
20260906223532 95 183 7.0 10.0 0.00 0.00 0.00 43 1091.4
20260906223031 94 177 11.0 15.0 0.00 0.00 0.00 43 1091.7
20260906222531 93 193 6.0 8.0 0.00 0.00 0.00 43 1091.6
20260906222028 93 7 3.0 6.0 0.00 0.00 0.00 43 1091.8
20260906221527 94 193 6.0 7.0 0.00 0.00 0.00 44 1091.8
20260906221023 95 205 7.0 10.0 0.00 0.00 0.00 43 1091.7
20260906220522 98 202 4.0 6.0 0.00 0.00 0.00 37 1091.7
20260906220018 96 159 4.0 4.0 0.00 0.00 0.00 39 1091.7
20260906215517 94 213 4.0 6.0 0.00 0.00 0.00 41 1091.7
20260906215015 95 198 3.0 4.0 0.00 0.00 0.00 42 1091.8
20260906214514 96 201 4.0 6.0 0.00 0.00 0.00 40 1091.9
20260906214009 95 189 1.0 1.0 0.00 0.00 0.00 41 1091.9
20260906213503 94 178 7.0 10.0 0.00 0.00 0.00 42 1091.9
20260906213003 93 189 4.0 4.0 0.00 0.00 0.00 43 1091.9
20260906212456 93 161 9.0 10.0 0.00 0.00 0.00 43 1091.9
20260906211951 93 176 4.0 6.0 0.00 0.00 0.00 43 1092.2
20260906211446 94 197 5.0 8.0 0.00 0.00 0.00 42 1092.5
20260906210941 94 147 7.0 9.0 0.00 0.00 0.00 41 1092.5
20260906210437 94 160 2.0 2.0 0.00 0.00 0.00 41 1092.7
20260906205930 93 161 1.0 1.0 0.00 0.00 0.00 42 1092.6
20260906205426 94 187 4.0 6.0 0.00 0.00 0.00 43 1092.4
20260906204922 94 173 5.0 7.0 0.00 0.00 0.00 42 1092.6
20260906204421 93 168 3.0 3.0 0.00 0.00 0.00 43 1092.8
20260906203921 93 179 3.0 4.0 0.00 0.00 0.00 43 1092.8
20260906203416 94 171 5.0 6.0 0.00 0.00 0.00 43 1092.8
20260906202914 94 177 6.0 9.0 0.00 0.00 0.00 43 1092.6
20260906202413 93 177 4.0 6.0 0.00 0.00 0.00 43 1092.7
20260906201914 93 126 6.0 7.0 0.00 0.00 0.00 43 1092.9
20260906201408 94 225 5.0 8.0 0.00 0.00 0.00 42 1092.9
20260906200903 94 227 3.0 3.0 0.00 0.00 0.00 41 1092.7
20260906200359 96 166 4.0 6.0 0.00 0.00 0.00 40 1093.1
20260906195853 94 201 1.0 1.0 0.00 0.00 0.00 40 1092.9
20260906195350 93 194 8.0 10.0 0.00 0.00 0.00 42 1093.1
20260906194846 93 208 7.0 8.0 0.00 0.00 0.00 44 1093.1
20260906194341 93 239 5.0 6.0 0.00 0.00 0.00 44 1093.2
20260906193836 93 164 4.0 6.0 0.00 0.00 0.00 43 1093.1
20260906193331 93 186 6.0 9.0 0.00 0.00 0.00 44 1093.2
20260906192827 93 153 7.0 9.0 0.00 0.00 0.00 44 1093.2
20260906192321 92 213 4.0 4.0 0.00 0.00 0.00 45 1093.4
20260906191820 93 162 3.0 4.0 0.00 0.00 0.00 43 1093.5
20260906191315 93 246 8.0 9.0 0.00 0.00 0.00 42 1093.4
20260906190815 93 246 5.0 6.0 0.00 0.00 0.00 44 1093.3
20260906190309 94 212 7.0 8.0 0.00 0.00 0.00 43 1093.4
20260906185808 96 224 8.0 9.0 0.00 0.00 0.00 41 1093.5
20260906185308 93 172 2.0 2.0 0.00 0.00 0.00 44 1093.6
20260906184802 96 164 8.0 10.0 0.00 0.00 0.00 41 1093.7
20260906184257 97 200 2.0 2.0 0.00 0.00 0.00 38 1093.7
20260906183754 93 87 3.0 4.0 0.00 0.00 0.00 43 1093.7
20260906183250 94 171 7.0 9.0 0.00 0.00 0.00 42 1094.2
20260906182749 92 152 4.0 6.0 0.00 0.00 0.00 45 1094.1
20260906182245 92 184 9.0 11.0 0.00 0.00 0.00 46 1094.2
20260906181740 92 208 8.0 10.0 0.00 0.00 0.00 45 1094.5
20260906181237 92 172 1.0 1.0 0.00 0.00 0.00 45 1094.4
20260906180737 92 177 3.0 3.0 0.00 0.00 0.00 43 1094.3
20260906180232 92 176 7.0 8.0 0.00 0.00 0.00 43 1094.3
20260906175729 92 167 3.0 3.0 0.00 0.00 0.00 45 1094.5
20260906175225 92 180 1.0 2.0 0.00 0.00 0.00 44 1094.9
20260906174723 92 192 2.0 3.0 0.00 0.00 0.00 45 1094.8
20260906174218 92 173 0.0 1.0 0.00 0.00 0.00 44 1094.7
20260906173713 95 170 6.0 7.0 0.00 0.00 0.00 42 1094.8
20260906173209 92 178 1.0 2.0 0.00 0.00 0.00 46 1095.0
20260906172708 93 129 1.0 2.0 0.00 0.00 0.00 44 1095.1
20260906172204 91 181 1.0 2.0 0.00 0.00 0.00 45 1095.2
20260906171704 90 156 4.0 6.0 0.00 0.00 0.00 48 1095.1
20260906171159 91 175 5.0 6.0 0.00 0.00 0.00 47 1095.2
20260906170655 91 216 1.0 1.0 0.00 0.00 0.00 46 1095.1
20260906170155 90 190 1.0 2.0 0.00 0.00 0.00 48 1095.2
20260906165651 91 203 4.0 6.0 0.00 0.00 0.00 47 1095.3
20260906165146 92 197 2.0 2.0 0.00 0.00 0.00 47 1095.1
20260906164645 93 157 1.0 1.0 0.00 0.00 0.00 45 1095.6
20260906164141 93 175 3.0 4.0 0.00 0.00 0.00 44 1095.4
20260906163636 90 165 0.0 1.0 0.00 0.00 0.00 53 1095.4
20260906163132 93 164 3.0 6.0 0.00 0.00 0.00 46 1095.1
20260906162629 91 145 1.0 1.0 0.00 0.00 0.00 50 1095.3
20260906162129 89 183 1.0 2.0 0.00 0.00 0.00 53 1095.1
20260906161629 87 218 2.0 2.0 0.00 0.00 0.00 56 1095.6
20260906161128 88 175 1.0 1.0 0.00 0.00 0.00 55 1095.4
20260906160627 88 202 2.0 2.0 0.00 0.00 0.00 55 1095.2
20260906160126 88 275 1.0 1.0 0.00 0.00 0.00 57 1095.3
20260906155624 88 164 1.0 1.0 0.00 0.00 0.00 56 1095.3
20260906155120 89 138 0.0 0.0 0.00 0.00 0.00 56 1095.3
20260906154615 88 211 4.0 6.0 0.00 0.00 0.00 57 1095.3
20260906154114 87 219 5.0 6.0 0.00 0.00 0.00 58 1095.3
20260906153614 86 166 0.0 1.0 0.00 0.00 0.00 58 1095.2
20260906153109 87 276 4.0 4.0 0.00 0.00 0.00 59 1095.2
20260906152609 86 135 3.0 3.0 0.00 0.00 0.00 59 1095.1
20260906152103 85 217 3.0 3.0 0.00 0.00 0.00 62 1095.2
20260906151558 85 111 1.0 1.0 0.00 0.00 0.00 63 1095.2
20260906151054 84 144 1.0 1.0 0.00 0.00 0.00 64 1095.1
20260906150549 85 183 1.0 1.0 0.00 0.00 0.00 63 1095.2
20260906150044 84 161 1.0 1.0 0.00 0.00 0.00 63 1095.0
20260906145543 82 149 1.0 1.0 0.00 0.00 0.00 68 1095.2
20260906145038 83 156 1.0 2.0 0.00 0.00 0.00 66 1095.1
20260906144532 81 191 2.0 3.0 0.00 0.00 0.00 70 1095.1
20260906144027 80 188 2.0 2.0 0.00 0.00 0.00 72 1095.0
20260906143522 80 219 3.0 3.0 0.00 0.00 0.00 72 1095.1
20260906143020 79 224 2.0 2.0 0.00 0.00 0.00 74 1095.1
20260906142518 79 198 2.0 3.0 0.00 0.00 0.00 74 1095.0
20260906142014 78 222 2.0 3.0 0.00 0.00 0.00 75 1094.8
20260906141513 78 207 3.0 3.0 0.00 0.00 0.00 76 1095.0
20260906141008 78 203 3.0 3.0 0.00 0.00 0.00 75 1095.0
20260906140502 77 220 4.0 6.0 0.00 0.00 0.00 77 1094.7
20260906140001 76 227 5.0 6.0 0.00 0.00 0.00 78 1094.7
20260906135459 76 255 4.0 4.0 0.00 0.00 0.00 79 1094.7
20260906134954 75 224 3.0 3.0 0.00 0.00 0.00 80 1094.5
20260906134450 74 189 2.0 3.0 0.00 0.00 0.00 81 1094.7
20260906133950 74 237 3.0 3.0 0.00 0.00 0.00 82 1094.7
20260906133446 74 233 2.0 2.0 0.00 0.00 0.00 82 1094.7
20260906132942 73 231 2.0 3.0 0.00 0.00 0.00 83 1094.6
20260906132437 73 174 3.0 4.0 0.00 0.00 0.00 84 1094.6
20260906131932 73 197 2.0 2.0 0.00 0.00 0.00 84 1094.4
20260906131427 73 189 2.0 3.0 0.00 0.00 0.00 84 1094.6
20260906130923 72 221 4.0 4.0 0.00 0.00 0.00 85 1094.2
20260906130422 72 199 3.0 3.0 0.00 0.00 0.00 86 1094.3
20260906125922 71 184 3.0 3.0 0.00 0.00 0.00 86 1094.4
20260906125420 71 181 1.0 2.0 0.00 0.00 0.00 86 1094.5
20260906124914 71 194 2.0 2.0 0.00 0.00 0.00 87 1094.3
20260906124410 71 191 2.0 2.0 0.00 0.00 0.00 87 1094.2
20260906123910 71 176 1.0 2.0 0.00 0.00 0.00 87 1094.3
20260906123404 71 180 2.0 2.0 0.00 0.00 0.00 87 1094.3
20260906122903 71 196 3.0 3.0 0.00 0.00 0.00 87 1094.1
20260906122358 71 234 3.0 3.0 0.00 0.00 0.00 87 1094.0
20260906121855 71 216 2.0 2.0 0.00 0.00 0.00 87 1093.9
20260906121351 71 180 2.0 2.0 0.00 0.00 0.00 87 1094.0
20260906120847 70 214 2.0 2.0 0.00 0.00 0.00 87 1093.6
20260906120343 70 187 2.0 2.0 0.00 0.00 0.00 87 1094.0
20260906115839 70 165 2.0 2.0 0.00 0.00 0.00 87 1093.6
20260906115334 71 198 1.0 1.0 0.00 0.00 0.00 86 1093.7
20260906114833 71 216 2.0 2.0 0.00 0.00 0.00 86 1093.4
20260906114328 71 224 2.0 3.0 0.00 0.00 0.00 86 1093.2
20260906113824 71 228 2.0 3.0 0.00 0.00 0.00 85 1093.6
20260906113323 71 225 4.0 4.0 0.00 0.00 0.00 85 1093.6
20260906112818 71 251 2.0 3.0 0.00 0.00 0.00 85 1093.4
20260906112314 72 213 2.0 3.0 0.00 0.00 0.00 84 1093.5
20260906111814 72 203 3.0 3.0 0.00 0.00 0.00 84 1093.4
20260906111313 72 191 2.0 3.0 0.00 0.00 0.00 84 1093.3
20260906110809 72 207 2.0 3.0 0.00 0.00 0.00 84 1093.3
20260906110305 72 182 2.0 2.0 0.00 0.00 0.00 83 1093.4
20260906105803 72 191 3.0 4.0 0.00 0.00 0.00 83 1093.2
20260906105259 72 235 2.0 3.0 0.00 0.00 0.00 83 1093.3
20260906104754 73 211 2.0 3.0 0.00 0.00 0.00 83 1093.2
20260906104254 73 182 1.0 2.0 0.00 0.00 0.00 82 1093.3
20260906103752 73 201 3.0 4.0 0.00 0.00 0.00 82 1093.3
20260906103251 73 198 2.0 2.0 0.00 0.00 0.00 82 1093.2
20260906102747 73 200 2.0 2.0 0.00 0.00 0.00 81 1093.3
20260906102246 73 179 2.0 3.0 0.00 0.00 0.00 81 1093.2
20260906101741 73 198 4.0 4.0 0.00 0.00 0.00 81 1093.1
20260906101236 73 213 3.0 3.0 0.00 0.00 0.00 81 1093.3
20260906100732 73 241 5.0 7.0 0.00 0.00 0.00 81 1092.8
20260906100231 73 190 4.0 6.0 0.00 0.00 0.00 81 1093.1
20260906095727 73 186 4.0 4.0 0.00 0.00 0.00 82 1093.0
20260906095222 73 193 4.0 4.0 0.00 0.00 0.00 82 1092.9
20260906094720 73 219 3.0 3.0 0.00 0.00 0.00 82 1092.8
20260906094216 73 187 2.0 3.0 0.00 0.00 0.00 82 1093.1
20260906093712 72 226 3.0 3.0 0.00 0.00 0.00 82 1092.9
20260906093208 73 240 3.0 4.0 0.00 0.00 0.00 82 1092.9
20260906092703 73 229 2.0 3.0 0.00 0.00 0.00 82 1093.1
20260906092202 72 202 2.0 2.0 0.00 0.00 0.00 82 1093.0
20260906091658 73 204 3.0 3.0 0.00 0.00 0.00 82 1092.9
20260906091154 73 228 3.0 4.0 0.00 0.00 0.00 81 1092.7
20260906090650 73 225 3.0 3.0 0.00 0.00 0.00 80 1093.0
20260906090150 74 179 3.0 3.0 0.00 0.00 0.00 79 1092.9
20260906085649 75 188 2.0 3.0 0.00 0.00 0.00 78 1092.8
20260906085148 75 217 3.0 3.0 0.00 0.00 0.00 77 1092.7
20260906084643 75 216 4.0 4.0 0.00 0.00 0.00 77 1092.8
20260906084142 75 206 3.0 3.0 0.00 0.00 0.00 76 1093.0
20260906083637 75 172 3.0 4.0 0.00 0.00 0.00 76 1092.9
20260906083132 75 168 3.0 4.0 0.00 0.00 0.00 77 1092.9
20260906082628 75 210 3.0 4.0 0.00 0.00 0.00 77 1092.9
20260906082123 75 189 3.0 4.0 0.00 0.00 0.00 77 1093.3
20260906081619 75 205 4.0 6.0 0.00 0.00 0.00 77 1092.7
20260906081114 75 209 4.0 4.0 0.00 0.00 0.00 77 1093.1
20260906080611 75 170 3.0 3.0 0.00 0.00 0.00 77 1092.9
20260906080107 75 181 2.0 2.0 0.00 0.00 0.00 77 1093.0
20260906075606 75 202 2.0 2.0 0.00 0.00 0.00 77 1093.0
20260906075101 75 179 2.0 2.0 0.00 0.00 0.00 77 1093.0
20260906074556 75 176 1.0 2.0 0.00 0.00 0.00 77 1093.0
20260906074055 75 206 2.0 2.0 0.00 0.00 0.00 77 1092.9
20260906073550 75 206 2.0 2.0 0.00 0.00 0.00 77 1092.9
20260906073046 75 188 2.0 2.0 0.00 0.00 0.00 77 1093.2
20260906072541 75 188 2.0 2.0 0.00 0.00 0.00 77 1093.1
20260906072037 75 173 1.0 1.0 0.00 0.00 0.00 76 1093.1
20260906071533 75 204 1.0 1.0 0.00 0.00 0.00 76 1093.2
20260906071028 76 177 1.0 2.0 0.00 0.00 0.00 75 1093.4
20260906070524 76 210 1.0 2.0 0.00 0.00 0.00 75 1093.4
20260906070020 76 175 1.0 1.0 0.00 0.00 0.00 75 1093.4
20260906065519 76 198 1.0 1.0 0.00 0.00 0.00 75 1093.5
20260906065015 77 173 2.0 2.0 0.00 0.00 0.00 74 1093.4
20260906064511 77 198 1.0 1.0 0.00 0.00 0.00 74 1093.5
20260906064011 77 200 2.0 2.0 0.00 0.00 0.00 73 1093.5
20260906063506 77 214 1.0 2.0 0.00 0.00 0.00 73 1093.4
20260906063001 77 201 2.0 3.0 0.00 0.00 0.00 73 1093.5
20260906062456 78 184 2.0 3.0 0.00 0.00 0.00 73 1093.6
20260906061952 78 166 2.0 2.0 0.00 0.00 0.00 72 1093.5
20260906061448 78 194 3.0 3.0 0.00 0.00 0.00 72 1093.6
20260906060947 78 196 2.0 3.0 0.00 0.00 0.00 72 1093.9
20260906060444 78 201 2.0 3.0 0.00 0.00 0.00 72 1093.6
20260906055941 78 196 2.0 3.0 0.00 0.00 0.00 71 1093.6
20260906055436 78 168 2.0 3.0 0.00 0.00 0.00 71 1093.7
20260906054932 78 190 2.0 2.0 0.00 0.00 0.00 71 1093.5
20260906054426 78 174 3.0 3.0 0.00 0.00 0.00 70 1093.5
20260906053922 78 176 2.0 3.0 0.00 0.00 0.00 70 1094.0
20260906053418 78 170 2.0 2.0 0.00 0.00 0.00 70 1093.6
20260906052914 79 174 4.0 4.0 0.00 0.00 0.00 70 1093.6
20260906052410 79 175 3.0 3.0 0.00 0.00 0.00 69 1093.6
20260906051906 79 201 2.0 3.0 0.00 0.00 0.00 69 1093.6
20260906051406 79 180 3.0 4.0 0.00 0.00 0.00 69 1094.0
20260906050902 79 196 3.0 3.0 0.00 0.00 0.00 68 1094.1
20260906050357 80 198 2.0 3.0 0.00 0.00 0.00 68 1094.0
20260906045856 80 180 1.0 1.0 0.00 0.00 0.00 67 1093.9
20260906045355 80 204 2.0 3.0 0.00 0.00 0.00 66 1093.9
20260906044852 80 168 2.0 3.0 0.00 0.00 0.00 66 1094.0
20260906044351 80 202 4.0 4.0 0.00 0.00 0.00 65 1094.0
20260906043847 81 183 3.0 3.0 0.00 0.00 0.00 65 1094.0
20260906043343 81 208 2.0 3.0 0.00 0.00 0.00 65 1094.0
20260906042838 81 214 4.0 4.0 0.00 0.00 0.00 65 1093.7
20260906042337 81 196 4.0 4.0 0.00 0.00 0.00 64 1093.4
20260906041833 81 180 4.0 6.0 0.00 0.00 0.00 64 1093.7
20260906041328 81 202 4.0 4.0 0.00 0.00 0.00 64 1093.7
20260906040828 81 213 2.0 3.0 0.00 0.00 0.00 63 1093.9
20260906040323 82 194 2.0 3.0 0.00 0.00 0.00 63 1093.9
20260906035819 82 186 4.0 6.0 0.00 0.00 0.00 62 1093.9
20260906035314 82 172 3.0 3.0 0.00 0.00 0.00 62 1093.9
20260906034810 83 198 6.0 7.0 0.00 0.00 0.00 61 1093.9
20260906034309 83 230 3.0 3.0 0.00 0.00 0.00 61 1093.6
20260906033805 83 179 2.0 3.0 0.00 0.00 0.00 60 1093.6
20260906033304 83 227 3.0 3.0 0.00 0.00 0.00 60 1093.5
20260906032801 83 176 2.0 3.0 0.00 0.00 0.00 60 1093.4
20260906032256 84 219 3.0 3.0 0.00 0.00 0.00 59 1093.3
20260906031751 84 199 3.0 3.0 0.00 0.00 0.00 59 1093.3
20260906031247 84 177 5.0 6.0 0.00 0.00 0.00 58 1093.0
20260906030746 84 194 4.0 4.0 0.00 0.00 0.00 58 1093.1
20260906030241 84 149 4.0 4.0 0.00 0.00 0.00 58 1093.0
20260906025741 85 196 6.0 7.0 0.00 0.00 0.00 57 1092.7
20260906025235 85 214 4.0 4.0 0.00 0.00 0.00 57 1092.8
20260906024734 85 186 6.0 7.0 0.00 0.00 0.00 57 1092.8
20260906024233 85 209 4.0 4.0 0.00 0.00 0.00 56 1092.5
20260906023729 86 196 4.0 4.0 0.00 0.00 0.00 56 1092.5
20260906023225 86 194 4.0 6.0 0.00 0.00 0.00 56 1092.2
20260906022720 86 189 5.0 6.0 0.00 0.00 0.00 55 1092.3
20260906022215 86 196 5.0 6.0 0.00 0.00 0.00 55 1092.2
20260906021711 86 254 6.0 7.0 0.00 0.00 0.00 55 1091.7
20260906021209 87 161 4.0 4.0 0.00 0.00 0.00 55 1091.7
20260906020706 87 161 4.0 7.0 0.00 0.00 0.00 54 1091.7
20260906020200 87 195 6.0 8.0 0.00 0.00 0.00 54 1091.7
20260906015659 87 215 5.0 7.0 0.00 0.00 0.00 54 1091.6
20260906015158 88 199 4.0 4.0 0.00 0.00 0.00 54 1091.5
20260906014658 88 191 6.0 8.0 0.00 0.00 0.00 54 1091.5
20260906014154 88 245 6.0 7.0 0.00 0.00 0.00 53 1091.4
20260906013650 88 190 8.0 11.0 0.00 0.00 0.00 53 1091.4
20260906013145 89 246 6.0 7.0 0.00 0.00 0.00 53 1091.3
20260906012645 89 210 4.0 6.0 0.00 0.00 0.00 53 1091.1
20260906012145 89 230 6.0 7.0 0.00 0.00 0.00 53 1091.5
20260906011641 89 193 7.0 8.0 0.00 0.00 0.00 52 1091.3
20260906011136 90 167 4.0 6.0 0.00 0.00 0.00 52 1090.9
20260906010632 90 157 7.0 10.0 0.00 0.00 0.00 52 1091.1
20260906010128 90 228 8.0 10.0 0.00 0.00 0.00 51 1091.0
20260906005627 91 184 5.0 7.0 0.00 0.00 0.00 51 1091.1
20260906005126 91 200 9.0 10.0 0.00 0.00 0.00 50 1090.7
20260906004625 91 210 11.0 14.0 0.00 0.00 0.00 49 1091.1
20260906004120 92 152 6.0 8.0 0.00 0.00 0.00 48 1091.1
20260906003616 93 207 8.0 10.0 0.00 0.00 0.00 47 1090.9
20260906003112 93 139 2.0 3.0 0.00 0.00 0.00 44 1090.9
20260906002612 93 177 4.0 4.0 0.00 0.00 0.00 43 1090.8
20260906002107 93 171 6.0 8.0 0.00 0.00 0.00 43 1090.9
20260906001557 94 154 3.0 6.0 0.00 0.00 0.00 43 1090.8
20260906001056 94 177 3.0 4.0 0.00 0.00 0.00 42 1091.0
20260906000553 95 177 7.0 9.0 0.00 0.00 0.00 42 1090.8
20260906000048 96 192 8.0 13.0 0.00 0.00 0.00 41 1090.8
20260905235547 96 178 4.0 8.0 0.00 0.00 0.00 40 1090.9
20260905235042 96 172 4.0 6.0 0.00 0.00 0.00 41 1090.7
20260905234537 97 174 1.0 2.0 0.00 0.00 0.00 40 1090.9
20260905234032 96 191 7.0 9.0 0.00 0.00 0.00 41 1090.7
20260905233532 97 181 7.0 9.0 0.00 0.00 0.00 40 1090.6
20260905233032 98 128 3.0 7.0 0.00 0.00 0.00 40 1090.4
20260905232528 98 159 4.0 6.0 0.00 0.00 0.00 40 1090.2
20260905232023 98 153 5.0 9.0 0.00 0.00 0.00 40 1090.3
20260905231518 98 184 4.0 7.0 0.00 0.00 0.00 40 1090.0
20260905231015 97 145 2.0 3.0 0.00 0.00 0.00 41 1090.3
20260905230514 95 92 6.0 7.0 0.00 0.00 0.00 44 1090.2
20260905230012 95 280 3.0 3.0 0.00 0.00 0.00 44 1090.2
20260905225507 95 200 2.0 4.0 0.00 0.00 0.00 44 1090.4
20260905225002 96 116 3.0 4.0 0.00 0.00 0.00 43 1090.3
20260905224457 96 172 8.0 9.0 0.00 0.00 0.00 43 1090.4